www.pogodaiklimat.ru

Погода и климат >> Архив погоды >> Канада >> Eureka


ПОГОДА в Eureka

  • Прогноз погоды в Eureka
  • Монитор погоды в Eureka
  • Климат города

АРХИВ ПОГОДЫ в Eureka

Время (UTC), дата Ветер
(напр.,м/с)
 
Видим.   Явления Облачность Т
(С)
Тd
(С)
f
(%)
Тe
(С)
Тes
(С)
Комфортность P
(гПа)
Po
(гПа)
Тmin
(С)
Tmax
(С)
R
(мм)
S
(см)
03 21.03 В 2 16 км 9/9 600 м
[]
-36.2 -40.1 67 -43 -43 опасность
обморожения
1014.8 1013.3
06 21.03 В 2 24 км ледяные иглы {снег} 1/1 600 м
[Sc]
-36.8 -40.7 67 -46 -46 опасность
обморожения
1014.5 1013.0 0.0 6
09 21.03 В 2 16 км 9/9 600 м
[]
-35.9 -39.8 67 -43 -43 опасность
обморожения
1013.9 1012.4
12 21.03 В 1 11 км слабый снег 10/3 600 м
[Sc As trans]
-35.7 -39.7 67 -41 -41 опасность
обморожения
1013.4 1011.9 0.0 7
15 21.03 В 2 16 км 9/9 600 м
[]
-37.0 -41.1 65 -46 -46 опасность
обморожения
1012.6 1011.1
18 21.03 СВ 2 24 км слабый снег 8/0 2000 м
[As trans]
-36.0 -40.1 66 -43 -43 опасность
обморожения
1011.6 1010.1 -35.1 0.0 7
21 21.03 ЮВ 2 24 км 9/0 2000 м
[]
-35.1 -39.1 67 -44 -43 опасность
обморожения
1011.3 1009.8
00 22.03 ЮВ 3 24 км ледяные иглы {снег} 5/1 1000 м
[Sc As trans]
-36.8 -40.7 67 -48 -48 опасность
обморожения
1011.1 1009.6 -37.5 -34.8 0.0 7
03 22.03 ЮВ 2 24 км 1/0 2000 м
[]
-37.8 -41.7 67 -47 -47 опасность
обморожения
1010.9 1009.4
06 22.03 С 1 24 км ледяные иглы {снег} ясно -38.6 -42.5 66 -40 -40 опасность
обморожения
1010.9 1009.4 0.0 7
09 22.03 В 2 24 км 1/0
[]
-38.3 -42.2 67 -46 -46 опасность
обморожения
1011.2 1009.7
12 22.03 В 1 24 км ледяные иглы {снег} 1/1 1000 м
[Sc Ac As]
-39.5 -43.5 65 -45 -45 опасность
обморожения
1011.3 1009.8 0.0 7
15 22.03 В 1 24 км 1/1 600 м
[]
-38.4 -42.4 66 -44 -43 опасность
обморожения
1011.1 1009.6
18 22.03 В 1 24 км ледяные иглы {снег} 1/1 600 м
[Sc Ac trans]
-38.2 -42.2 66 -43 -42 опасность
обморожения
1010.8 1009.3 -36.9 0.0 7
21 22.03 С 1 24 км 1/1 600 м
[]
-36.8 -40.9 66 -38 -38 опасность
обморожения
1010.5 1009.0
00 23.03 С 1 24 км ледяные иглы {снег} ясно -38.3 -42.3 66 -40 -40 опасность
обморожения
1010.2 1008.7 -40.3 -36.8 0.0 7
03 23.03 В 1 16 км ясно -39.5 -43.6 65 -45 -45 опасность
обморожения
1009.4 1007.9
06 23.03 С 1 24 км ледяные иглы {снег} ясно -38.6 -42.6 66 -40 -40 опасность
обморожения
1009.1 1007.6 0.0 7
09 23.03 С 1 24 км ясно -38.3 -42.3 66 -40 -40 опасность
обморожения
1009.3 1007.8
12 23.03 С 1 24 км ледяные иглы {снег} ясно -38.7 -42.8 65 -40 -40 опасность
обморожения
1009.3 1007.8 0.0 7
15 23.03 В 1 11 км ясно -39.1 -43.2 65 -44 -44 опасность
обморожения
1009.6 1008.1
18 23.03 С 1 24 км ледяные иглы {снег} ясно -36.7 -40.8 66 -38 -37 опасность
обморожения
1010.1 1008.6 -36.0 0.0 7
21 23.03 СВ 1 24 км ясно -37.0 -41.1 65 -42 -41 опасность
обморожения
1011.1 1009.6
00 24.03 В 1 24 км ледяные иглы {снег} ясно -38.6 -42.8 64 -44 -44 опасность
обморожения
1012.8 1011.3 -40.2 -36.0 0.0 7
03 24.03 Ю 1 24 км ясно -38.0 -42.0 66 -43 -43 опасность
обморожения
1013.8 1012.3
06 24.03 СВ 1 24 км ледяные иглы {снег} ясно -39.9 -44.0 65 -45 -45 опасность
обморожения
1014.7 1013.2 0.0 7
09 24.03 В 3 24 км ясно -39.7 -43.8 65 -51 -51 опасность
обморожения
1015.7 1014.2
12 24.03 В 6 24 км н/о -39.2 -43.3 65 -55 -55 опасность
обморожения
1016.1 1014.6
15 24.03 В 4 24 км ясно -38.5 -42.7 64 -52 -51 опасность
обморожения
1015.6 1014.1
18 24.03 ЮВ 5 24 км ледяные иглы {снег} 1/0
[Ac As]
-38.0 -42.0 66 -53 -52 опасность
обморожения
1014.3 1012.8 -37.5 0.0 7
21 24.03 ЮВ 6 24 км 5/0 2000 м
[]
-36.7 -40.6 67 -52 -52 опасность
обморожения
1013.3 1011.8
00 25.03 ЮВ 6 24 км ледяные иглы {снег} 8/0 2000 м
[As trans Ci fib]
-38.0 -42.0 66 -53 -53 опасность
обморожения
1012.6 1011.1 -40.6 -36.6 0.0 7
03 25.03 ЮВ 5 11 км 4/0 2000 м
[]
-37.1 -41.2 65 -52 -52 опасность
обморожения
1011.1 1009.6
06 25.03 ЮВ 4 24 км ледяные иглы {снег} 1/0 2000 м
[Ac As]
-38.5 -42.7 64 -51 -51 опасность
обморожения
1009.9 1008.4 0.0 7
09 25.03 СВ 1 24 км 8/8 600 м
[]
-38.2 -42.2 66 -43 -43 опасность
обморожения
1009.7 1008.2
12 25.03 ЮВ 2 24 км ледяные иглы {снег} 8/4 600 м
[Sc As trans]
-36.5 -40.4 67 -45 -45 опасность
обморожения
1009.6 1008.1 0.0 7
15 25.03 ЮВ 2 16 км 8/8 600 м
[]
-33.9 -37.8 68 -42 -42 опасность
обморожения
1009.7 1008.2
18 25.03 ЮВ 2 24 км ледяные иглы {снег} 10/0 2000 м
[Ac As Cs]
-33.0 -36.7 69 -40 -39 опасность
обморожения
1010.5 1009.0 -32.8 0.0 7
21 25.03 В 1 16 км 10/0 2000 м
[]
-31.1 -34.8 70 -35 -35 опасность
обморожения
1011.8 1010.3
00 26.03 В 1 9000 м слабый снег 10/10 600 м
[Sc]
-31.3 -35.0 70 -36 -36 опасность
обморожения
1012.6 1011.1 -39.3 -30.4 0.0 7
03 26.03 Ю 2 16 км 8/8 600 м
[]
-30.0 -33.7 70 -38 -38 опасность
обморожения
1013.0 1011.5
06 26.03 В 2 16 км слабый снег 10/4 600 м
[Sc Ac As]
-29.3 -32.7 72 -35 -35 опасность
обморожения
1013.3 1011.8 0.0 7
09 26.03 ЮВ 6 16 км 10/10 600 м
[]
-23.8 -26.8 76 -36 -36 опасность
обморожения
1013.8 1012.3
12 26.03 ЮВ 8 6000 м слабый снег 10/10 600 м
[Sc As op]
-21.4 -24.1 79 -34 -34 опасность
обморожения
1013.8 1012.3 0.0 7
15 26.03 ЮВ 9 4800 м 10/10 600 м
[]
-20.4 -23.2 78 -33 -33 опасность
обморожения
1013.8 1012.3
18 26.03 ЮВ 6 8000 м слабый снег 10/10 600 м
[Sc]
-19.1 -22.0 78 -29 -29 1013.6 1012.1 -18.6 0.0 7
21 26.03 ЮВ 7 4800 м 10/10 600 м
[]
-18.9 -21.8 78 -30 -30 1014.4 1012.9
00 27.03 ЮВ 9 8000 м слабый снег {туман} 10/5 600 м
[Sc Ac As]
-18.9 -22.1 76 -31 -31 опасность
обморожения
1014.3 1012.9 -29.0 -18.3 0.0 6
03 27.03 В 9 4800 м 10/10 600 м
[]
-18.9 -21.7 78 -31 -31 опасность
обморожения
1014.9 1013.5
06 27.03 Ю 12 1600 м слабый снег 10/10 600 м
[Sc]
-18.6 -21.1 81 -33 -33 опасность
обморожения
1014.2 1012.8 0.0 61
09 27.03 Ю 10 3600 м 10/10 600 м
[]
-18.8 -21.9 76 -32 -32 опасность
обморожения
1015.5 1014.1
12 27.03 Ю 15 1000 м метель {снег} 10/4 600 м
[Sc Ac As]
-20.1 -23.0 78 -36 -36 опасность
обморожения
1016.9 1015.5 0.0 5
15 27.03 ЮВ 11 1600 м 9/9 200 м
[]
-20.8 -24.1 75 -35 -35 опасность
обморожения
1019.9 1018.4
18 27.03 ЮВ 8 11 км позёмок {метель} 10/1 600 м
[Sc As op Cc]
-20.6 -24.1 73 -33 -33 опасность
обморожения
1021.6 1020.1 -18.2
21 27.03 ЮВ 7 11 км 10/10 600 м
[]
-20.0 -24.0 70 -32 -32 опасность
обморожения
1022.8 1021.3
00 28.03 ЮВ 7 11 км позёмок 10/9 600 м
[Sc As trans]
-19.6 -23.8 69 -31 -31 опасность
обморожения
1023.5 1022.0 -21.7 -19.3

 

Местоположение метеостанции Eureka (Канада): широта 79.98 долгота -85.93 высота над уровнем моря 10 м.

В архиве по умолчанию представлена погода в Eureka за последнюю неделю. Архивные данные за месяц целиком и за предыдущие месяцы, начиная с января 2011 года, Вы можете получить, выбрав интересующий диапазон дат из раскрывающегося списка и нажав кнопку "Ввод!".

Внимание! Время в таблицах - всемирное. Для получения местного времени необходимо прибавить поправку, которая в Eureka равна -6 ч.

Смотрите также архив погоды в соседних городах и на ближайших метеорологических станциях:

Погода в Eureka Climate (Канада) (1 км)
Погода в Chris Hadfield (Канада) (343 км)
Погода в Isachsen (aut) (Канада) (382 км)
Погода в Mittarfik Qaanaaq (Гренландия) (452 км)
Погода в Kitsissut (Гренландия) (471 км)
Погода в Alert Climate (Канада) (483 км)
Погода в Resolute Cs (Канада) (623 км)
Погода в Resolute Airport (Канада) (623 км)
Погода в Arctic Bay (Канада) (777 км)
Погода в Pond Inlet Airport (Канада) (834 км)

Пояснения к столбцам:

Ветер - указаны скорость ветра в м/с - средняя за 10 мин, порывы в срок и между сроками (в фигурных скобках) и направление, откуда дует ветер: С - северный, СВ - северо-восточный, В - восточный, ЮВ - юго-восточный, Ю - южный, ЮЗ - юго-западный, З - западный, СЗ - северо-западный.
Видимость - горизонтальная дальность видимости в метрах или километрах. При видимости от 1 до 10 км при отсутствии осадков обычно наблюдается дымка, при ухудшении видимости до 1 км и менее - туман. В сухую погоду видимость может ухудшаться дымом, пылью или мглою.
Явления - указаны атмосферные явления, наблюдавшиеся в срок или в последний час перед сроком; фигурными скобками обозначены явления, наблюдавшиеся между сроками (за 1-3 часа до срока); квадратными скобками обозначены град или гололедные отложения с указанием их диаметра в мм.
Облачность - указаны через наклонную черту общая и нижняя облачность в баллах и высота нижней границы облаков в метрах; квадратными скобками обозначены формы облаков: Ci - перистые, Cs - перисто-слоистые, Cc - перисто-кучевые, Ac - высококучевые, As - высокослоистые, Sc - слоисто-кучевые, Ns - слоисто-дождевые, Cu - кучевые, Cb - кучево-дождевые. Подробнее классификацию облаков см. в Атласе облаков (PDF).
T - Температура воздуха - температура, измеренная на высоте 2 м над землей.
Td - Температура точки росы - температура, при понижении до которой содержащийся в воздухе водяной пар достигнет насыщения.
f - Относительная влажность воздуха - влажноcть воздуха, измеренная на высоте 2 м над землей.
Te - Эффективная температура - температура, которую ощущает одетый по сезону человек в тени. Характеристика душности погоды. При расчете учитывается влияние влажности воздуха и скорости ветра на теплоощущения человека.
Tes - Эффективная температура на солнце - температура, которую ощущает человек, с поправкой на солнечный нагрев. Характеристика знойности погоды. Зависит от высоты солнца над горизонтом, облачности и скорости ветра. Ночью, в пасмурную погоду, а также при ветре 12 м/с и более поправка равна нулю.
P - Атмосферное давление - приведенное к уровню моря атмосферное давление.
Po - Атмосферное давление - измеренное на уровне метеостанции атмосферное давление.
Tmin - Минимальная температура - минимум температуры воздуха на высоте 2 м над землей.
Tmax - Максимальная температура - максимум температуры воздуха на высоте 2 м над землей.
R - Количество осадков - Количество выпавших осадков, мм. При наведении курсора мыши на число - период времени, за который выпало указанное количество осадков.
S - Снежный покров - Высота снежного покрова, см. При наведении курсора мыши на число - состояние снежного покрова и степень покрытия местности в баллах.